Volver al catálogo

COSMOS 1749

ActivoMilitarLEO
NORAD 16759·PAYLOAD·🇷🇺 Russia

Lanzado Jun 6, 1986 desde Plesetsk Cosmodrome

Loading…

Próximos Pases (próximas 24 horas)

TLE

ActualizadoSource: Space-Track

Época: Sep 14, 2026, 01:45 UTC

1 16759U 86042B   26257.07331620 -.00000023  00000-0 -38679-4 0  9996
2 16759  74.0147 266.4783 0048588 351.5396  27.3666 12.58110358849627

Sigue COSMOS 1749 en tiempo real con AllMySat

Download on the App Store